sat.trackr.live / text

‹ back to catalog

YAOGAN-30 03B

NORAD 43029 · 2017-075B

PAYLOAD ACTIVE UNKNOWN

§ Identity

Operator
Country
PRC
Launch date
2017-11-24
Launch site
XICLF
Launch vehicle
Mass (kg)
RCS (m²)

External: N2YO · Heavens-Above · Gunter

§ Orbital elements

Epoch: 2026-05-25T03:35:22.017696Z

Period
95.84 min
Inclination
34.9948°
Eccentricity
0.0002878
Mean motion
15.02560492 rev/d
Perigee alt
557.0 km
Apogee alt
561.0 km
Semi-major
6,937.1 km
B*
1.8445e-4
RAAN
50.6350°
Arg perigee
17.2941°
Mean anomaly
342.7864°
Rev number
46,389

§ Raw data

YAOGAN-30 03B1 43029U 17075B   26145.14956039  .00002474  00000+0  18445-3 0  99942 43029  34.9948  50.6350 0002878  17.2941 342.7864 15.02560492463893

JSON: /api/v1/satellites/43029 · /tle

For live sub-satellite position, see the globe view (requires WebGL).

§ Visibility from observer

Set your observer location to see the next 7 days of passes ≥ 10°. The values pass through the URL so the page stays shareable.

No JS? Fill the form by hand. The geolocation button needs JavaScript.